Weather in Krasnoturinsk

Russia / Sverdlovsk Oblast     59°45′49″N   60°11′36″E
temp.,
°C
wind,
m/s
gust,
m/s
humid.,
%
clouds,
%
prec.,
mm/h
press.,
hPa
HPBL,
m
5 august, thu
thu523:00+18ssw398980 0.9 1009207
02:00+17sw22966 0.0 100819
05:00+17sw22955 0.0 100933
08:00+22s0172100 0.0 1008152
11:00+26sse2356100 0.0 1007775
14:00+29ssw354470 0.0 10061685
17:00+28sw3451100 0.0 1006912
20:00+21nw298290 0.6 1006389
6 august, fri
fri623:00+17wnw3890100 0.6 1006308
02:00+16nw269516 0.0 1006171
05:00+17nw2687100 0.0 1007292
08:00+15wnw3693100 0.6 1008256
11:00+18nw3577100 0.8 1009570
14:00+18nnw157388 0.4 1010569
17:00+19nne2570100 0.6 1011285
20:00+17nw1273100 0.0 101164
7 august, sat
sat723:00+13wnw26776 0.0 1012137
02:00+11wnw25811 0.0 1012116
05:00+10nw24880 0.0 101292
08:00+14nw357039 0.0 1012464
11:00+15nw3468100 0.0 1013713
14:00+16nw3467100 0.0 1013853
17:00+16wnw346491 0.0 1014940
20:00+15wnw257099 0.0 1014422
8 august, sun
sun823:00+11wnw4880100 0.0 1015343
02:00+9nw2791100 0.0 1015188
05:00+9wnw289540 0.0 1016191
08:00+13nw357476 0.0 1016320
11:00+19nnw345695 0.0 1016869
14:00+23nnw344922 0.0 10161403
17:00+23nw3449100 0.0 10161530
20:00+17wnw486910 0.0 1017337
9 august, mon
mon923:00+12nw259256 0.0 1019100
02:00+10wnw269714 0.0 1019121
05:00+9wnw11975 0.0 101922
08:00+14wnw237365 0.0 1019314
11:00+20nw23546 0.0 10181050
14:00+23nw234123 0.0 10171562
17:00+23nw2436100 0.0 10171792
20:00+17nnw2264100 0.0 101856